sat.trackr.live / text

‹ back to catalog

STARLINK-4498

NORAD 53434 · 2022-097AY

PAYLOAD ACTIVE UNKNOWN

§ Identity

Operator
Country
US
Launch date
2022-08-10
Launch site
AFETR
Launch vehicle
Mass (kg)
RCS (m²)

Purposes: comms

External: N2YO · Heavens-Above · Gunter

§ Orbital elements

Epoch: 2026-07-02T06:06:51.885216Z

Period
87.62 min
Inclination
53.2003°
Eccentricity
0.0007255
Mean motion
16.43489145 rev/d
Perigee alt
151.8 km
Apogee alt
161.3 km
Semi-major
6,534.7 km
B*
3.2062e-4
RAAN
267.3162°
Arg perigee
340.6276°
Mean anomaly
19.4498°
Rev number
21,668

§ Raw data

STARLINK-44981 53434U 22097AY  26183.25476719  .08211162  12559-4  32062-3 0  99932 53434  53.2003 267.3162 0007255 340.6276  19.4498 16.43489145216681

JSON: /api/v1/satellites/53434 · /tle

For live sub-satellite position, see the globe view (requires WebGL).

§ Visibility from observer

Set your observer location to see the next 7 days of passes ≥ 10°. The values pass through the URL so the page stays shareable.

No JS? Fill the form by hand. The geolocation button needs JavaScript.